sat.trackr.live / text

‹ back to catalog

STARLINK-36927

NORAD 67941 · 2026-037K

PAYLOAD ACTIVE UNKNOWN

§ Identity

Operator
Country
US
Launch date
2026-02-24
Launch site
AFETR
Launch vehicle
Mass (kg)
RCS (m²)

Purposes: comms

External: N2YO · Heavens-Above · Gunter

§ Orbital elements

Epoch: 2026-09-19T04:07:37.365600Z

Period
94.27 min
Inclination
43.0010°
Eccentricity
0.0001501
Mean motion
15.27594377 rev/d
Perigee alt
482.0 km
Apogee alt
484.0 km
Semi-major
6,861.1 km
B*
5.8129e-4
RAAN
177.8341°
Arg perigee
267.7386°
Mean anomaly
92.3294°
Rev number
3,293

§ Raw data

STARLINK-369271 67941U 26037K   26262.17196025  .00015775  00000+0  58129-3 0  99962 67941  43.0010 177.8341 0001501 267.7386  92.3294 15.27594377 32930

JSON: /api/v1/satellites/67941 · /tle

For live sub-satellite position, see the globe view (requires WebGL).

§ Visibility from observer

Set your observer location to see the next 7 days of passes ≥ 10°. The values pass through the URL so the page stays shareable.

No JS? Fill the form by hand. The geolocation button needs JavaScript.